Location: Fernhill
(41.0167°S, 175.6333°E)
Time: 02:11:29
(UTC+00:00)

Cosmos 1634 Rocket - Pass Details

Date: 08 November 2025
Orbit: 958 x 992 km, 82.9° (Epoch: 13 December)

Event Time Altitude Azimuth Distance (km) Brightness Sun altitude
Rises 07:50:39 0° 189° (S) 3,725 7.7 -8.3°
Reaches altitude 10° 07:53:11 10° 189° (S) 2,774 7.0 -8.7°
Maximum altitude 07:59:34 81° 275° (W) 1,016 4.2 -9.7°
Drops below altitude 10° 08:05:54 10° 1° (N) 2,755 6.0 -10.7°
Sets 08:08:25 0° 2° (N) 3,697 6.7 -11.1°
